Showing default

IRIDIUM 132, 42961

Orbit data source: Space-Track

IRIDIUM 132, 42961 is a payload satellite owned by Iridium (US) in LEO that was launched on Mon, 09 Oct 2017 UTC via an FALCON 9 launch vehicle from the Air Force Western Test Range (AFWTR). Payload-class satellites include a variety of spacecraft equipped with specific instruments for various scientific and technological missions. These include communications satellites like Starlink; space stations such as the ISS; scientific satellites like the Hubble; Earth observation satellites from companies like Planet Labs, Umbra, and HawkEye 360; GPS; miniature CubeSats for education and research; and military/defense satellites.

Loading next visibility...
Identifier
42961, 2017-061G
Orbit
LEO
Country
Flag of USUS
Related business
Manufacturer
OATK SSG Gilbert
Mission
Operational Commercial Communications
Bus & Motor
ELITEBUS, Unknown motor
Mass
860 kg wet, 700 kg dry
Launch date (UTC)
2017-10-09 (8 years ago)
Launch vehicle
FALCON 9
Launch site
Air Force Western Test Range (AFWTR)
Object type
Payload
Rocket body
Debris
Shape & HBR
Trap Box + 2 Pan, 4.8 m
Radar Cross Section
10.154 m², Large (>1 m²)

Expand to show TLE details & history
Last TLE update: 9 hours ago

TLE from 9 hours ago
0 IRIDIUM 132
1 42961U 17061G   25307.72998347  .00000001  00000-0 -68101-5 0  9996
2 42961  86.3938 119.5254 0001914  87.6023 272.5392 14.34217349422500
Epoch: 2025-11-03T17:31Z
TLE epoch observation values (Epoch: 2025-11-03T17:31:10.571Z)
Latitude
-0.00003°
Longitude
173.50418°
Altitude
780.659 km
Speed
7.464 km/s
True Right ascension
07h 58m 06s
True Declination
0° 00' 00"
Sunlit
Object was in daylight at epoch
Visualization orbit readout
Latitude
Unknown
Longitude
Unknown
Altitude
Unknown
Speed
Unknown
Apparent Right ascension
Unknown
Apparent Declination
Unknown
Sunlit
N/A
Visualization observer readout
Local Sidereal Time
22:38:19
Azimuth
Unknown
Elevation
Unknown
Doppler factor
Unknown
Orbital elements
Apogee altitude
776.002 km
Perigee altitude
773.264 km
Semi-major axis
7,152.77 km
Eccentricity
0.00019
Inclination
86.3938°
RAAN
119.5254°
Arg. of periapsis
87.6023°
True anomaly
272.51729°
Mean anomaly
272.5392°
Eccentric anomaly
272.52824°
Mean motion
3.58783 °/min
Orbital period
100.34 mins
BSTAR
-0.0000068101
Loading maneuver chart data...
Computing Atmospheric mass density...
Loading historical data...
Loading historical data...
Loading historical data...
Loading historical data...
Loading historical data...
Loading historical data...
Loading historical data...

Documentation

Showing up to 5 results
|